BAW253 MYNN-MBPV

Flight info

Callsign BAW253
Flight time 0h 52m
Altitude 37000
Route BOSAR DCT SOLEI
Aircraft B77W/H-SDE1E2E3FGHIJ2J3J4J5M1RWXY/LB1D1

Departure

Time 2026-05-01 07:49
Airport Lynden Pindling International Airport (MYNN)

Arrival

Time 2026-05-01 08:42
Airport Providenciales International Airport (MBPV)
Time Latitude Longitude Altitude Speed Heading
2026-05-01 07:44 25.05024 -77.46885 22 ft 0 kts 352°
2026-05-01 07:45 25.05023 -77.46885 22 ft 0 kts 352°
2026-05-01 07:45 25.05010 -77.46883 26 ft 0 kts 352°
2026-05-01 07:45 25.04996 -77.46881 25 ft 0 kts 352°
2026-05-01 07:46 25.04982 -77.46879 24 ft 0 kts 347°
2026-05-01 07:46 25.04972 -77.46869 26 ft 0 kts 289°
2026-05-01 07:46 25.04972 -77.46859 27 ft 0 kts 262°
2026-05-01 07:47 25.04959 -77.46893 25 ft 12 kts 239°
2026-05-01 07:47 25.04917 -77.46937 26 ft 8 kts 207°
2026-05-01 07:48 25.04810 -77.46969 28 ft 8 kts 232°
2026-05-01 07:48 25.04786 -77.47028 28 ft 8 kts 253°
2026-05-01 07:48 25.04743 -77.47059 27 ft 9 kts 173°
2026-05-01 07:49 25.04689 -77.47016 30 ft 17 kts 135°
2026-05-01 07:49 25.03400 -77.45646 308 ft 224 kts 138°
2026-05-01 07:49 25.02297 -77.44297 1867 ft 231 kts 128°
2026-05-01 07:50 25.01348 -77.42863 3355 ft 233 kts 127°
2026-05-01 07:50 24.99291 -77.39617 4761 ft 272 kts 126°
2026-05-01 07:50 24.98217 -77.37926 5827 ft 273 kts 126°
2026-05-01 07:51 24.97120 -77.36208 6866 ft 276 kts 126°
2026-05-01 07:51 24.96002 -77.34465 7775 ft 281 kts 126°
2026-05-01 07:51 24.94858 -77.32693 8686 ft 286 kts 126°
2026-05-01 07:52 24.92480 -77.29024 10358 ft 304 kts 126°
2026-05-01 07:52 24.91203 -77.27059 10763 ft 330 kts 126°
2026-05-01 07:52 24.89804 -77.24910 10985 ft 360 kts 126°
2026-05-01 07:53 24.86722 -77.20178 12169 ft 392 kts 126°
2026-05-01 07:53 24.85117 -77.17717 13032 ft 399 kts 126°
2026-05-01 07:53 24.83486 -77.15217 13921 ft 405 kts 126°
2026-05-01 07:53 24.81826 -77.12674 14709 ft 411 kts 126°
2026-05-01 07:54 24.78432 -77.07481 16304 ft 424 kts 126°
2026-05-01 07:55 24.73172 -76.99443 18635 ft 442 kts 126°
2026-05-01 07:55 24.69546 -76.93910 20090 ft 448 kts 126°
2026-05-01 07:56 24.63996 -76.85454 22219 ft 460 kts 126°
2026-05-01 07:56 24.60106 -76.79778 23529 ft 469 kts 129°
2026-05-01 07:57 24.58085 -76.76948 24065 ft 473 kts 129°
2026-05-01 07:57 24.53976 -76.71222 25102 ft 481 kts 129°
2026-05-01 07:58 24.49842 -76.65428 26144 ft 488 kts 129°
2026-05-01 07:58 24.45620 -76.59484 27189 ft 496 kts 129°
2026-05-01 07:59 24.41346 -76.53464 28198 ft 503 kts 129°
2026-05-01 07:59 24.37024 -76.47382 29144 ft 511 kts 129°
2026-05-01 08:00 24.28163 -76.34944 30990 ft 518 kts 128°
2026-05-01 08:01 24.21596 -76.25746 32930 ft 505 kts 128°
2026-05-01 08:01 24.19438 -76.22729 33490 ft 502 kts 128°
2026-05-01 08:01 24.17286 -76.19721 34011 ft 500 kts 128°
2026-05-01 08:02 24.13021 -76.13765 34748 ft 501 kts 128°
2026-05-01 08:02 24.10870 -76.10764 35073 ft 502 kts 128°
2026-05-01 08:03 24.06554 -76.04748 35770 ft 502 kts 128°
2026-05-01 08:03 24.04397 -76.01744 36101 ft 502 kts 127°
2026-05-01 08:03 24.00079 -75.95736 36746 ft 502 kts 127°
2026-05-01 08:04 23.95730 -75.89691 36970 ft 508 kts 127°
2026-05-01 08:04 23.91373 -75.83644 36962 ft 502 kts 127°
2026-05-01 08:05 23.84948 -75.74739 36970 ft 498 kts 127°
2026-05-01 08:06 23.78511 -75.65833 36970 ft 497 kts 127°
2026-05-01 08:07 23.69944 -75.54006 36971 ft 498 kts 127°
2026-05-01 08:08 23.63484 -75.45105 36966 ft 499 kts 127°
2026-05-01 08:09 23.54844 -75.33226 36984 ft 499 kts 127°
2026-05-01 08:09 23.50546 -75.27328 36974 ft 499 kts 127°
2026-05-01 08:10 23.41903 -75.15486 36976 ft 498 kts 127°
2026-05-01 08:11 23.33294 -75.03718 36972 ft 497 kts 127°
2026-05-01 08:12 23.26824 -74.94893 36974 ft 497 kts 127°
2026-05-01 08:13 23.21078 -74.87067 36975 ft 497 kts 127°
2026-05-01 08:13 23.14601 -74.78261 36994 ft 497 kts 127°
2026-05-01 08:14 23.10309 -74.72434 36973 ft 497 kts 127°
2026-05-01 08:14 23.05990 -74.66576 36972 ft 497 kts 127°
2026-05-01 08:15 22.99498 -74.57785 36974 ft 497 kts 127°
2026-05-01 08:16 22.95164 -74.51924 36973 ft 497 kts 127°
2026-05-01 08:16 22.90874 -74.46130 36475 ft 494 kts 127°
2026-05-01 08:16 22.88733 -74.43240 36009 ft 489 kts 127°
2026-05-01 08:17 22.86612 -74.40380 35577 ft 485 kts 127°
2026-05-01 08:17 22.84504 -74.37539 35117 ft 481 kts 127°
2026-05-01 08:17 22.82410 -74.34717 34661 ft 478 kts 127°
2026-05-01 08:17 22.80330 -74.31917 34225 ft 475 kts 127°
2026-05-01 08:18 22.78258 -74.29127 33718 ft 473 kts 127°
2026-05-01 08:18 22.74154 -74.23608 32768 ft 466 kts 127°
2026-05-01 08:19 22.70132 -74.18205 31869 ft 460 kts 127°
2026-05-01 08:19 22.68129 -74.15516 31440 ft 456 kts 127°
2026-05-01 08:19 22.66135 -74.12840 30989 ft 454 kts 127°
2026-05-01 08:19 22.64158 -74.10189 30539 ft 451 kts 127°
2026-05-01 08:20 22.62188 -74.07548 30116 ft 448 kts 127°
2026-05-01 08:20 22.60257 -74.04961 29590 ft 446 kts 128°
2026-05-01 08:20 22.58313 -74.02358 29110 ft 443 kts 128°
2026-05-01 08:20 22.56381 -73.99772 28644 ft 440 kts 128°
2026-05-01 08:21 22.54460 -73.97202 28188 ft 436 kts 128°
2026-05-01 08:21 22.52557 -73.94657 27741 ft 433 kts 128°
2026-05-01 08:21 22.50667 -73.92132 27303 ft 429 kts 128°
2026-05-01 08:21 22.48796 -73.89632 26882 ft 426 kts 128°
2026-05-01 08:22 22.46931 -73.87141 26421 ft 424 kts 128°
2026-05-01 08:22 22.45102 -73.84701 26005 ft 421 kts 128°
2026-05-01 08:22 22.43263 -73.82247 25581 ft 418 kts 128°
2026-05-01 08:22 22.41434 -73.79810 25146 ft 416 kts 128°
2026-05-01 08:23 22.39614 -73.77384 24708 ft 415 kts 128°
2026-05-01 08:23 22.37801 -73.74968 24278 ft 413 kts 129°
2026-05-01 08:23 22.35993 -73.72561 23845 ft 411 kts 129°
2026-05-01 08:23 22.34193 -73.70165 23397 ft 409 kts 129°
2026-05-01 08:24 22.32423 -73.67811 22923 ft 407 kts 129°
2026-05-01 08:24 22.30644 -73.65446 22471 ft 404 kts 129°
2026-05-01 08:24 22.28876 -73.63097 22047 ft 401 kts 129°
2026-05-01 08:24 22.27116 -73.60759 21632 ft 399 kts 129°
2026-05-01 08:25 22.25368 -73.58438 21206 ft 396 kts 129°
2026-05-01 08:25 22.23636 -73.56138 20798 ft 394 kts 129°
2026-05-01 08:25 22.21909 -73.53847 20384 ft 392 kts 129°
2026-05-01 08:25 22.20192 -73.51570 19980 ft 390 kts 129°
2026-05-01 08:26 22.18505 -73.49334 19564 ft 389 kts 129°
2026-05-01 08:26 22.16798 -73.47073 19129 ft 388 kts 129°
2026-05-01 08:26 22.15095 -73.44817 18721 ft 388 kts 129°
2026-05-01 08:26 22.13393 -73.42563 18294 ft 387 kts 129°
2026-05-01 08:27 22.11687 -73.40305 17822 ft 386 kts 129°
2026-05-01 08:27 22.09993 -73.38064 17375 ft 384 kts 129°
2026-05-01 08:27 22.08300 -73.35826 16948 ft 382 kts 128°
2026-05-01 08:27 22.06623 -73.33610 16534 ft 380 kts 128°
2026-05-01 08:28 22.04954 -73.31405 16119 ft 378 kts 128°
2026-05-01 08:28 22.03313 -73.29237 15707 ft 376 kts 128°
2026-05-01 08:28 22.01662 -73.27058 15300 ft 374 kts 128°
2026-05-01 08:28 22.00021 -73.24892 14896 ft 372 kts 128°
2026-05-01 08:29 21.98385 -73.22734 14493 ft 370 kts 128°
2026-05-01 08:29 21.96756 -73.20585 14073 ft 369 kts 128°
2026-05-01 08:29 21.95133 -73.18447 13653 ft 368 kts 128°
2026-05-01 08:29 21.93531 -73.16337 13217 ft 366 kts 128°
2026-05-01 08:30 21.91925 -73.14222 12787 ft 364 kts 128°
2026-05-01 08:30 21.90326 -73.12115 12368 ft 361 kts 128°
2026-05-01 08:30 21.88738 -73.10024 11978 ft 359 kts 128°
2026-05-01 08:30 21.87154 -73.07941 11577 ft 357 kts 128°
2026-05-01 08:31 21.85601 -73.05897 11189 ft 355 kts 128°
2026-05-01 08:31 21.84037 -73.03843 10808 ft 353 kts 128°
2026-05-01 08:31 21.82564 -73.01759 10439 ft 344 kts 118°
2026-05-01 08:31 21.81730 -72.99408 10296 ft 331 kts 99°
2026-05-01 08:32 21.81495 -72.96984 10156 ft 320 kts 92°
2026-05-01 08:32 21.81350 -72.94620 10015 ft 312 kts 92°
2026-05-01 08:32 21.81218 -72.92298 9802 ft 306 kts 92°
2026-05-01 08:32 21.81090 -72.90035 9593 ft 300 kts 92°
2026-05-01 08:33 21.80961 -72.87821 9436 ft 293 kts 92°
2026-05-01 08:33 21.80833 -72.85672 9101 ft 292 kts 92°
2026-05-01 08:33 21.80700 -72.83470 8608 ft 297 kts 92°
2026-05-01 08:33 21.80564 -72.81239 8133 ft 301 kts 93°
2026-05-01 08:34 21.80424 -72.78985 7799 ft 300 kts 93°
2026-05-01 08:34 21.80286 -72.76785 7696 ft 290 kts 94°
2026-05-01 08:34 21.80153 -72.74680 7231 ft 278 kts 94°
2026-05-01 08:34 21.80023 -72.72635 6802 ft 271 kts 94°
2026-05-01 08:35 21.79894 -72.70610 6493 ft 272 kts 94°
2026-05-01 08:35 21.79764 -72.68574 6167 ft 272 kts 94°
2026-05-01 08:35 21.79636 -72.66569 5855 ft 272 kts 94°
2026-05-01 08:35 21.79505 -72.64528 5540 ft 272 kts 94°
2026-05-01 08:36 21.79374 -72.62492 5233 ft 272 kts 94°
2026-05-01 08:36 21.79244 -72.60463 4924 ft 271 kts 94°
2026-05-01 08:36 21.79115 -72.58462 4589 ft 261 kts 94°
2026-05-01 08:36 21.78990 -72.56526 4318 ft 258 kts 94°
2026-05-01 08:37 21.78867 -72.54622 4036 ft 258 kts 94°
2026-05-01 08:37 21.78743 -72.52700 3739 ft 257 kts 94°
2026-05-01 08:37 21.78619 -72.50783 3484 ft 255 kts 94°
2026-05-01 08:37 21.78497 -72.48910 3373 ft 246 kts 94°
2026-05-01 08:38 21.78379 -72.47100 3255 ft 238 kts 94°
2026-05-01 08:38 21.78274 -72.45341 3059 ft 233 kts 93°
2026-05-01 08:38 21.78191 -72.43608 2813 ft 230 kts 93°
2026-05-01 08:38 21.78110 -72.41900 2556 ft 227 kts 93°
2026-05-01 08:39 21.78029 -72.40225 2223 ft 218 kts 93°
2026-05-01 08:39 21.77954 -72.38684 1939 ft 200 kts 93°
2026-05-01 08:39 21.77884 -72.37247 1658 ft 184 kts 93°
2026-05-01 08:39 21.77819 -72.35923 1401 ft 168 kts 93°
2026-05-01 08:40 21.77711 -72.33711 1008 ft 141 kts 92°
2026-05-01 08:40 21.77658 -72.32630 861 ft 149 kts 92°
2026-05-01 08:40 21.77605 -72.31531 682 ft 144 kts 91°
2026-05-01 08:41 21.77554 -72.30450 462 ft 141 kts 90°
2026-05-01 08:41 21.77500 -72.29389 211 ft 142 kts 93°
2026-05-01 08:41 21.77435 -72.28336 72 ft 145 kts 92°
2026-05-01 08:41 21.77400 -72.27423 37 ft 78 kts 93°
2026-05-01 08:42 21.77388 -72.27129 33 ft 16 kts 81°
2026-05-01 08:42 21.77466 -72.27072 33 ft 13 kts 355°
2026-05-01 08:42 21.77524 -72.27091 34 ft 6 kts 352°
2026-05-01 08:42 21.77548 -72.27092 34 ft 0 kts 360°